Simultaneous Nadir Overpasses (SNOs) Predictions

Prediction of SNOs between AQUA and NOAA-19 Satellite Orbit:

Table of predicted SNOs for the next 14.0 days since TLE Epoch: 11/30/2018
Index Date (AQUA) Time (AQUA) Lat,Lon (AQUA) SZA (AQUA ) Date (NOAA-19) Time (NOAA-19) Lat,Lon (NOAA-19) SZA (NOAA-19 ) Distance(km) Time Diff (sec)
1 12/01/2018 13:35:56 80.63, -60.61 103.94 12/01/2018 13:34:52 80.63, -60.45 103.95 2.86 64
2 12/01/2018 14:25:23 -80.65, 106.88 76.03 12/01/2018 14:25:48 -80.64, 106.91 76.05 1.35 25
3 12/03/2018 19:59:07 80.65,-156.56 104.32 12/03/2018 19:59:23 80.64,-156.44 104.29 2.63 16
4 12/06/2018 01:32:50 -80.62, -59.73 75.42 12/06/2018 01:32:49 -80.63, -59.78 75.41 1.35 1
5 12/08/2018 07:06:34 80.63, 36.79 104.86 12/08/2018 07:06:25 80.62, 36.63 104.87 2.99 9
6 12/10/2018 12:40:17 -80.61, 133.54 74.94 12/10/2018 12:39:50 -80.63, 133.49 74.91 1.96 27
7 12/10/2018 13:29:44 80.62, -58.93 105.09 12/10/2018 13:30:55 80.64, -59.10 105.09 3.35 71
8 12/12/2018 18:14:01 80.62,-129.98 105.28 12/12/2018 18:13:26 80.62,-130.06 105.30 1.55 35




NCC Satellite Simultaneous Nadir Overpasses (SNOs) Prediction Service
